Weather History for Eagle, CO

Change the Weather History Date:

Monday, March 18, 2013

  Actual Average Record
Temperature  
Mean Temperature 34 °F -  
Max Temperature 44 °F 49 °F 68 °F (1972)
Min Temperature 24 °F 22 °F -2 °F (1955)
Degree Days  
Heating Degree Days 31    
Moisture  
Dew Point 14 °F    
Average Humidity 48    
Maximum Humidity 74    
Minimum Humidity 25    
Precipitation  
Precipitation 0.00 in - - ()
Sea Level Pressure  
Sea Level Pressure 29.93 in    
Wind  
Wind Speed 8 mph (WSW)    
Max Wind Speed 32 mph    
Max Gust Speed 39 mph    
Visibility 10 miles    
Events      
Averages and records for this station are not official NWS values.
T = Trace of Precipitation, MM = Missing Value Source: NWS Daily Summary

Daily Weather History Graph

Daily Weather History Graph

Search for Another Location

Airport:

Trip Planner

Search our weather history database for the weather conditions in past years. The results will help you decide how hot, cold, wet, or windy it might be!

Date:

Astronomy

Mar. 18, 2013 Rise Set
Actual Time 7:13 AM MDT 7:17 PM MDT
Civil Twilight 6:46 AM MDT 7:44 PM MDT
Nautical Twilight 6:15 AM MDT 8:16 PM MDT
Astronomical Twilight 5:43 AM MDT 8:48 PM MDT
Moon 11:16 AM MDT (3/18) 1:18 AM MDT (3/18)
Length of Visible Light 12h 57m
Length of Day
12h 04m
Waxing Crescent, 41% of the Moon is Illuminated
Mar 18
Waxing Crescent
Mar 19
First Quarter
Mar 27
Full
Apr 2
Last Quarter
Apr 10
New

Hourly Weather History & Observations

Time (MDT) Temp. Windchill Dew Point Humidity Pressure Visibility Wind Dir Wind Speed Gust Speed Precip Events Conditions
12:35 AM 33.8 °F 25.8 °F 5.0 °F 30% 29.89 in 10.0 mi West 10.4 mph 19.6 mph N/A   Clear
12:55 AM 33.8 °F 27.0 °F 6.8 °F 32% 29.89 in 10.0 mi West 8.1 mph - N/A   Clear
1:15 AM 32.0 °F 25.6 °F 12.2 °F 44% 29.89 in 10.0 mi WSW 6.9 mph - N/A   Clear
1:35 AM 30.2 °F 24.3 °F 12.2 °F 47% 29.90 in 10.0 mi West 5.8 mph - N/A   Clear
2:15 AM 28.4 °F 22.2 °F 15.8 °F 59% 29.92 in 10.0 mi West 5.8 mph - N/A   Clear
2:35 AM 28.4 °F 19.7 °F 12.2 °F 51% 29.92 in 10.0 mi WNW 9.2 mph - N/A   Clear
2:55 AM 28.4 °F - 14.0 °F 55% 29.93 in 10.0 mi Calm Calm - N/A   Clear
3:15 AM 28.4 °F 23.3 °F 14.0 °F 55% 29.92 in 10.0 mi South 4.6 mph - N/A   Clear
3:35 AM 26.6 °F 22.6 °F 14.0 °F 59% 29.92 in 10.0 mi East 3.5 mph - N/A   Clear
3:55 AM 26.6 °F - 15.8 °F 64% 29.91 in 10.0 mi Calm Calm - N/A   Clear
4:15 AM 26.6 °F - 14.0 °F 59% 29.91 in 10.0 mi Calm Calm - N/A   Clear
4:35 AM 26.6 °F - 15.8 °F 64% 29.91 in 10.0 mi Calm Calm - N/A   Clear
4:55 AM 24.8 °F 19.1 °F 17.6 °F 74% 29.91 in 10.0 mi SSE 4.6 mph - N/A   Scattered Clouds
5:15 AM 26.6 °F - 15.8 °F 64% 29.91 in 10.0 mi Calm Calm - N/A   Scattered Clouds
5:35 AM 26.6 °F - 17.6 °F 69% 29.92 in 10.0 mi Calm Calm - N/A   Partly Cloudy
5:55 AM 24.8 °F - 17.6 °F 74% 29.92 in 10.0 mi Calm Calm - N/A   Scattered Clouds
6:15 AM 24.8 °F 20.5 °F 15.8 °F 69% 29.92 in 10.0 mi East 3.5 mph - N/A   Mostly Cloudy
6:35 AM 24.8 °F 19.1 °F 17.6 °F 74% 29.93 in 10.0 mi East 4.6 mph - N/A   Scattered Clouds
6:50 AM 24.8 °F - 17.6 °F 74% 29.93 in 10.0 mi Calm Calm - N/A   Mostly Cloudy
7:50 AM 24.8 °F - 17.6 °F 74% 29.95 in 10.0 mi Calm Calm - N/A   Overcast
8:50 AM 28.4 °F - 19.4 °F 69% 29.97 in 10.0 mi Calm Calm - N/A   Overcast
9:50 AM 30.2 °F - 17.6 °F 60% 29.97 in 10.0 mi Calm Calm - N/A   Scattered Clouds
10:50 AM 35.6 °F 24.8 °F 14.0 °F 41% 29.96 in 10.0 mi WSW 19.6 mph 26.5 mph N/A   Mostly Cloudy
11:50 AM 37.4 °F 27.2 °F 15.8 °F 41% 29.97 in 10.0 mi West 19.6 mph 34.5 mph N/A   Mostly Cloudy
12:50 PM 37.4 °F 26.9 °F 12.2 °F 36% 29.96 in 10.0 mi West 20.7 mph 28.8 mph N/A   Mostly Cloudy
2:50 PM 42.8 °F 33.3 °F 10.4 °F 27% 29.91 in 10.0 mi WSW 24.2 mph 35.7 mph N/A   Mostly Cloudy
3:50 PM 44.6 °F 35.7 °F 10.4 °F 25% 29.89 in 10.0 mi WSW 24.2 mph 39.1 mph N/A   Scattered Clouds
4:50 PM 44.6 °F 34.4 °F 12.2 °F 27% 29.89 in 10.0 mi SW 32.2 mph - N/A   Scattered Clouds
5:50 PM 44.6 °F 36.4 °F 10.4 °F 25% 29.90 in 10.0 mi WSW 20.7 mph 28.8 mph N/A   Scattered Clouds
6:50 PM 42.8 °F 32.9 °F 14.0 °F 31% 29.91 in 10.0 mi SW 26.5 mph 25.3 mph N/A   Scattered Clouds
7:50 PM 41.0 °F 35.8 °F 15.8 °F 36% 29.91 in 10.0 mi West 8.1 mph 16.1 mph N/A   Mostly Cloudy
8:50 PM 41.0 °F 33.5 °F 12.2 °F 31% 29.92 in 10.0 mi SW 13.8 mph - N/A   Scattered Clouds
9:50 PM 41.0 °F 34.3 °F 12.2 °F 31% 29.95 in 10.0 mi West 11.5 mph 16.1 mph N/A   Scattered Clouds
10:50 PM 39.2 °F 29.8 °F 10.4 °F 31% 29.97 in 10.0 mi WSW 18.4 mph 23.0 mph N/A   Scattered Clouds
10:55 PM 39.2 °F 29.8 °F 10.4 °F 31% 29.98 in 10.0 mi West 18.4 mph 25.3 mph N/A   Overcast
11:15 PM 39.2 °F 30.5 °F 10.4 °F 31% 29.98 in 10.0 mi West 16.1 mph 25.3 mph N/A   Mostly Cloudy
11:35 PM 39.2 °F 29.6 °F 8.6 °F 28% 29.98 in 10.0 mi West 19.6 mph 25.3 mph N/A   Scattered Clouds
11:55 PM 37.4 °F 28.9 °F 10.4 °F 33% 29.98 in 10.0 mi West 13.8 mph 19.6 mph N/A   Partly Cloudy